Uitslag Hageland Powertriatlon top 3

# Naam Totaal
1 Devriendt Dennis 02:52:37 87.24
2 Brems Willem 02:53:26 85.79
3 Brydenbach Tim 02:54:35 85.44
4 Goetstouwers Stenn 02:58:26 84.27
5 Vandiest Thomas 03:01:08 83.45
6 Geys Ruben 03:02:45 82.96
7 Vande Capelle Ward 03:04:35 82.40
8 Borghs Bart 03:05:25 82.14
9 De Vrieze Bart 03:07:22 81.55
10 Cardoen Olivier 03:08:11 81.30
11 Verstraete Eduard 03:09:11 81.00
12 Pex Nelis 03:09:17 80.97
13 Laevens Bram 03:10:00 80.75
14 Wittemans Kurt 03:10:08 80.71
15 Steenackers Tom 03:10:11 80.69
16 Dewitte Lowie 03:10:18 80.66
17 Lagae Korneel 03:10:34 80.58
18 Krug Alexis 03:11:04 80.43
19 Amato Raphael 03:11:22 80.33
20 Berlage Lucky 03:11:54 80.17
21 Denis Sylvain 03:12:15 80.07
22 Huyberechts Dirk 03:12:21 80.03
23 Van Gorp Jan 03:13:35 79.66
24 Bogaert Mike 03:14:52 79.27
25 Hellemans Tom 03:14:59 79.23
26 Loquet Thomas 03:15:44 79.01
27 Vanassche Marc 03:16:03 78.91
28 Tops Dimitri 03:17:54 78.35
29 Van Den Eynde Johan 03:18:25 78.19
30 De Boeck Lennart 03:18:27 78.18
31 Cornelissen Xavier 03:18:34 78.14
32 Bernar Gunther 03:18:44 78.09
33 Delrue Jonas 03:19:33 77.84
34 Lami Kenny 03:21:06 77.37
35 Vanthienen Bert 03:21:47 77.16
36 Lasoen Filip 03:22:13 77.03
37 Jacobs Lennert 03:22:48 76.85
38 Vos Davy 03:22:55 76.82
39 Verkempinck Ruben 03:24:20 76.39
40 Wilson Mark 03:24:26 76.36
41 De Blauwe Steve 03:24:32 76.33
42 Van Driessche Niels 03:24:33 76.32
43 Clijsters Joël 03:25:18 76.09
44 Uyttersprot Dieter 03:25:19 76.09
45 Haeghebaert Lode 03:26:31 75.72
46 Aerden Danek 03:26:48 75.64
47 Van Londersele Jonathan 03:27:14 75.51
48 Weuts Karolien 03:27:20 79.66
49 Nu?ttgens Ralf 03:27:22 75.46
50 Menschaert Karel 03:28:08 75.23
51 Meeus Koen 03:28:15 75.20
52 Goudesone Cosie 03:28:55 74.99
53 Gouwkens Joeri 03:29:02 74.96
54 Ottevaere Charlene 03:29:09 78.01
55 Jochems Andrea 03:29:26 77.94
56 Nicolaï Pieter 03:29:59 74.67
57 Wils Geert 03:30:31 74.51
58 Verstraeten Debbie 03:30:40 77.64
59 Mesmaekers Frederic 03:30:47 74.43
60 Hemeryck Tom 03:30:58 74.37
61 Ros Niels 03:32:07 74.02
62 Van Den Boogaert Paul 03:32:30 73.90
63 Van Ham Geert 03:32:42 73.84
64 Verstraete Sam 03:33:08 73.71
65 De Laat Stefan 03:33:14 73.68
66 De Roeck Mehdi 03:33:30 73.60
67 Bertels Jeroen 03:33:58 73.46
68 Van De Wielle Jan 03:34:07 73.41
69 Peeters Werner 03:34:27 73.31
70 Van Cauwenberg Jelle 03:34:50 73.19
71 Kennis Eva 03:36:22 76.24
72 Somers Luk 03:36:24 72.72
73 Lamberg Olivier 03:36:38 72.64
74 Anthonis Johan 03:37:21 72.43
75 Volders Philippe 03:37:33 72.37
76 Bosmans Lode 03:37:58 72.24
77 Wouters Peter 03:38:22 72.12
78 Pelgrims Matthias 03:38:34 72.06
79 Roose Wouter 03:38:35 72.05
80 Willems Rudolf 03:38:45 72.00
81 Massagé Birgit 03:38:56 75.61
82 Bonomi Nicolas 03:38:57 71.94
83 Roskams Johan 03:39:12 71.86
84 Van Engeland Kim 03:39:18 71.83
85 Rijneveld Wilco 03:39:22 71.81
86 Evrard Jean-francois 03:39:34 71.75
87 Gheysens Jan 03:39:41 71.72
88 Van Der Toorn Robert 03:39:47 71.69
89 De Beukelaar Toon 03:39:47 71.69
90 Aerts Corentin 03:39:54 71.65
91 Poppe Jef 03:40:01 71.62
92 Van Coninckxloey Ivan 03:40:20 71.52
93 Van Rossom Sam 03:40:37 71.43
94 Van Reeth Luc 03:40:37 71.43
95 Van Buggenhout Pieterjan 03:40:50 71.37
96 Geuens Jan 03:41:08 71.28
97 Mergaerts Gert 03:41:14 71.25
98 Verstraete Kaz 03:41:31 71.16
99 Duquet Tom 03:41:35 71.14
100 Toussaint Maxime 03:41:48 71.07
101 Reymen Tommy 03:42:02 71.00
102 Denolf Karl 03:42:11 70.96
103 Uytterhoeven Davy 03:42:41 70.80
104 Vanden Eynde Birgen 03:43:00 70.71
105 Cuyvers Vanessa 03:43:17 74.55
106 Corveleijn Albert 03:43:56 70.42
107 Verstraete Diederik 03:44:22 70.29
108 Heylen Johan 03:44:26 70.27
109 Stubbe Frank 03:44:51 70.14
110 Jan Vingerhoets 03:45:04 70.08
111 Terryn Terryn 03:45:06 70.07
112 Valet Olivier 03:45:15 70.02
113 Dockx Jeroen 03:45:28 69.96
114 Ramaekers Jan 03:45:32 69.94
115 Jansens Mario 03:45:40 69.90
116 Decoene Frederik 03:45:48 69.86
117 Van Nuenen Roel 03:47:05 69.46
118 Cappaert -paulus Lieve 03:47:29 73.52
119 Van Den Berghe Tim 03:47:56 69.21
120 Leyssens Philip 03:48:00 69.19
121 Metdepenningen Peter 03:48:57 68.90
122 Metten Davy 03:49:16 68.80
123 Van Bel Peter 03:49:37 68.69
124 Ceulemans Lieven 03:50:02 68.57
125 Wils Joppe 03:50:05 68.55
126 Van Vliet Ton 03:50:33 68.41
127 Lefèvre Stefanie 03:50:39 72.74
128 Teniers Wim 03:50:58 68.28
129 Collet Christophe 03:51:11 68.22
130 Dehandtschutter Evy 03:51:13 72.60
131 Oprins Jimmy 03:51:28 68.13
132 Moens Patrick 03:51:39 68.08
133 Muis Christel 03:51:43 72.48
134 Hermans Eric 03:52:20 67.87
135 Bekaert Ruben 03:52:32 67.81
136 Rossenbacker Tom 03:52:45 67.74
137 Delhaye Eddy 03:53:18 67.57
138 Ladwig Matthias 03:53:38 67.47
139 Ronsyn Mark 03:53:55 67.39
140 Lauwers David 03:53:56 67.38
141 Sterckx Kathleen 03:54:18 71.85
142 Rits Olivier 03:54:23 67.24
143 Ceusters Patrick 03:55:06 67.03
144 Heylen Nick 03:55:11 67.00
145 Vandevoorde Emilie 03:55:42 71.50
146 Van Rompaey Sofie 03:55:42 71.50
147 Demeulemeester Frank 03:55:54 66.78
148 Leyman Gijs 03:55:56 66.77
149 de Jong Bas 03:55:59 66.76
150 Van Berghen Davy 03:56:31 66.59
151 Dans Pierre 03:57:49 66.20
152 Dekeirel Pol 03:57:51 66.19
153 Vos Bjorn 03:58:04 66.12
154 Lameir Christian 03:58:10 66.09
155 Gerits Tim 03:59:21 65.73
156 Bellet Jean-Francois 03:59:40 65.64
157 Vanden Bussche Ingrid 03:59:45 70.51
158 Vandeneede Diederik 03:59:52 65.57
159 Tineke Tempelaere 04:00:39 70.29
160 De Vidts Peter 04:00:56 65.25
161 Verhaeghe Hans 04:01:12 65.17
162 Wouters Steven 04:01:15 65.15
163 Cremer Herold 04:01:19 65.13
164 Bollette Bernard 04:01:52 64.97
165 Gordijn Mark 04:02:13 64.86
166 Afschrift Maarten 04:02:18 64.83
167 Beyaert Gerd 04:02:37 64.74
168 Mahy Nicolas 04:02:46 64.69
169 Jouck Nathalie 04:02:52 69.74
170 Van Der Vorst Pieter-jan 04:04:18 64.23
171 Sierhuis Robert 04:05:04 63.99
172 Goris Tim 04:05:13 63.95
173 Heremans Patrick 04:05:19 63.92
174 Villance Sophie 04:05:19 69.14
175 Mge Van Hoof 04:06:01 63.70
176 Dewulf Kurt 04:06:29 63.56
177 Offermann Nathalie 04:06:47 68.78
178 Ger Vis 04:07:10 63.35
179 Van Den Broeck Joris 04:07:21 63.30
180 Bertona Anna 04:07:25 68.63
181 Briers Maarten 04:07:27 63.27
182 Vertommen Gerrit 04:08:23 62.98
183 Depoorter Elise 04:08:33 68.35
184 Bryssinck Antoin 04:09:34 62.62
185 Liu Hao 04:09:39 62.60
186 Martinez Sam 04:09:52 62.53
187 Verlinden Pieter 04:10:43 62.27
188 Maarleveld Reinard 04:10:45 62.26
189 Van Caenegem Vincent 04:11:24 62.06
190 Baeke Ingrid 04:12:34 67.36
191 Vandecasteele Manu 04:12:37 61.69
192 Vangeel Bart 04:12:39 61.68
193 Vissers Frank 04:13:25 61.45
194 Vanhollebeke Olivia 04:13:36 67.11
195 Van Miert Wouter 04:14:46 61.04
196 Van Meerbeeck Christophe 04:14:49 61.03
197 Govaerts Lieve 04:15:58 66.53
198 Pouleyn Carolien 04:16:06 66.50
199 Van Osselaer Jan 04:16:06 60.63
200 Himpe Karen 04:16:35 66.38
201 Moyersoen Nicolas 04:16:57 60.38
202 Loodts Els 04:16:58 66.29
203 Pauels Johan 04:17:12 60.30
204 Laporte Davy 04:17:49 60.11
205 Derweduwen An 04:18:48 65.84
206 Mommerency Lislot 04:19:19 65.71
207 Bruninx Valérie 04:19:22 65.70
208 Haesaert David 04:19:26 59.62
209 Crepin Noelle 04:19:44 65.61
210 Dusart Stefan 04:21:11 59.09
211 Peerlinck Frank 04:22:12 58.78
212 Dabekausen Charles 04:22:33 58.67
213 Claes Patrick 04:22:58 58.54
214 Watteeuw Carl 04:23:52 58.27
215 Herinckx Antoine 04:24:27 58.09
216 Wierinckx Kristof 04:24:40 58.03
217 Oosterhof Henk 04:24:48 57.99
218 Scibetta Marc 04:27:36 57.13
219 Wielfaert Bernard 04:27:37 57.13
220 Van Huyck Wim 04:29:03 56.69
221 Ombelets Erik 04:29:31 56.55
222 Vankrunkelsven Jelle 04:32:22 55.68
223 Vivier Michael 04:33:28 55.35
224 Vis-hazelbag Erika 04:33:40 62.19
225 Merlevede Mieke 04:35:32 61.73
226 Kerkhof Faes 04:37:49 54.03
227 Kouijzer Sandra 04:38:08 61.09
228 Philips Peter 04:38:58 53.68
229 Decock Willem 04:42:33 52.59
230 Wijnands Henk 04:44:58 51.85
231 Callant Dominiek 04:49:18 50.53
232 Mariën Walter 04:50:23 50.20
233 Bakker Bart 04:51:27 49.88
234 Carême Alexis 04:51:54 49.24
235 Caers Lieve 05:04:02 54.24

Reacties

  • Nog geen reacties beschikbaar